Regional Weather Roundup
Issued by NWS

Home | Current Version | Previous Version | Graphics & Text | Print | Product List | Glossary On
Versions: 1 2 3 4 5 6 7 8 9 10 11 12 13 14 15 16 17 18 19 20 21 22 23 24 25 26 27 28 29 30 31 32 33 34 35 36 37 38 39 40 41 42 43 44 45 46 47 48 49 50
473
ASUS45 KSLC 121810
RWRUT

UTAH REGIONAL WEATHER ROUNDUP
NATIONAL WEATHER SERVICE SALT LAKE CITY UT
1100 AM MST FRI FEB 12 2016

UTZ001>011-023>025-121900-

NORTHERN UTAH

CITY           SKY/WX    TMP DP  RH WIND       PRES   REMARKS
BRIGHAM CITY   CLOUDY    26  24  93 CALM      30.47S
HILL AFB       PTSUNNY   27  27  99 NW5       30.42S FOG     WCI  22
LOGAN          CLOUDY    21  20  96 E5        30.45R FOG     WCI  15
OGDEN          PTSUNNY   28  25  88 CALM      30.43F FOG
PROVO AIRPORT  FOG       23  19  86 CALM      30.44S VSB 1/8
SALT LAKE CITY FOG       30  27  88 N6        30.44S VSB 1   WCI  24
VERNAL         CLOUDY    25  18  74 E6        30.46S HAZE    WCI  18
WENDOVER       CLOUDY    28  25  86 CALM      30.44F
HEBER CITY     SUNNY     27  18  69 CALM      30.39F
WEST JORDAN    CLOUDY    28  27  93 CALM      30.43S

$$

UTZ012>022-026-027-121900-

SOUTHERN/CENTRAL UTAH

CITY           SKY/WX    TMP DP  RH WIND       PRES   REMARKS
BLANDING       SUNNY     40  27  59 CALM      30.51S
BRYCE CANYON   SUNNY     30  19  63 SW3       30.45S
CEDAR CITY     MOSUNNY   36  23  59 CALM      30.37S
DELTA          CLOUDY    15  13  93 CALM      30.43S VSB 3/4
HANKSVILLE     SUNNY     37  32  81 CALM      30.48S
MILFORD        FOG       12  12 100 S3        30.41S VSB 3/4
MOAB/CYNLANDS  SUNNY     39  28  64 CALM      30.44F
PRICE          SUNNY     40  24  53 S3        30.42F
ST GEORGE      CLEAR     48  27  43 CALM      30.36F
KANAB          SUNNY     57  27  30 CALM      30.40F

$$

REGIONAL REPORTS     COLORADO/ARIZONA

CITY           SKY/WX    TMP DP  RH WIND       PRES   REMARKS
CRAIG, CO      CLOUDY    21  15  78 CALM      30.44F
GRAND JUNCTION SUNNY     38  26  62 CALM      30.45S
RIFLE          SUNNY     34  18  52 CALM      30.46F
MONTROSE       SUNNY     41  20  43 CALM      30.46F
CORTEZ         SUNNY     43  20  39 CALM      30.44F
PAGE, AZ       SUNNY     48  32  53 CALM      30.42S
GRAND CANYON   SUNNY     61  10  13 SE6       30.42S
KINGMAN        SUNNY     62  23  22 N3        30.28S
FLAGSTAFF      SUNNY     55  17  22 NE6       30.44S

$$

REGIONAL REPORTS    NEVADA/IDAHO/WYOMING

CITY           SKY/WX    TMP DP  RH WIND       PRES   REMARKS
LAS VEGAS, NV  MOSUNNY   62  24  23 CALM      30.24S
ELY            MOSUNNY   29  17  61 S16       30.37S WCI  17
ELKO           PTSUNNY   20  14  77 CALM      30.42S
POCATELLO, ID  CLOUDY    35  24  64 NW5       30.37S WCI  31
BURLEY           N/A    N/A N/A N/A MISG      30.32S
EVANSTON, WY   CLOUDY    38  16  40 S5        30.38S WCI  34
ROCK SPRINGS   CLOUDY    41  21  44 W3        30.37S
KEMMERER       CLOUDY    36  18  48 N8        30.38S WCI  29

$$




USA.gov is the U.S. government's official web portal to all federal, state and local government web resources and services.